Presure
202 208 227 237 252 248 207 218 221 220 209 231 208 194 196 201 197 200 203 198 198 184 189 197 198 190 190 195 192 189 185 181 192 191 192 266 203 198 180 190 183 184 192
207 128 222 235 228 223 237 223 218 214 217 203 199 192 194 197 194 196 194 195 199 196 193 191 190 187 196 196 186 192 200 191 184 175 185 188 263 217 194 178 182 174 182
146 217 224 206 229 227 222 223 215 221 204 202 207 203 201 196 191 194 199 198 195 193 189 198 173 181 186 197 192 193 195 191 187 195 186 205 180 212 219 173 188 181 184
210 209 210 214 214 211 215 214 208 205 205 202 199 198 197 200 203 203 198 195 193 189 187 195 189 189 188 190 190 191 192 192 186 188 192 175 191 202 226 191 179 182 180
205 209 213 215 213 204 201 195 197 200 197 198 201 203 204 206 202 187 163 184 193 192 191 192 191 195 193 194 192 189 189 188 195 191 178 182 194 209 183 246 205 182 183
212 215 208 196 194 197 199 201 202 204 206 209 208 206 202 191 196 199 189 207 206 205 199 198 196 194 190 192 193 193 198 201 194 196 202 188 196 195 214 198 220 199 192
205 190 192 202 205 211 208 206 208 206 207 208 207 206 208 207 200 201 198 195 198 202 201 200 112 195 199 197 198 182 203 202 198 196 199 207 210 203 128 214 191 215 191
199 207 201 189 194 211 212 207 208 206 205 204 202 202 202 198 200 201 201 201 203 205 206 205 206 205 205 205 206 205 207 188 202 203 200 203 207 211 192 199 189 208 231
200 203 203 199 197 195 196 200 207 203 195 193 193 194 199 208 219 218 223 232 233 236 235 236 243 246 244 234 223 216 216 217 221 215 213 215 211 213 211 189 199 211 199
194 193 196 196 193 195 204 202 193 192 194 194 213 208 215 224 223 225 265 269 290 291 306 292 311 279 279 284 277 272 256 242 238 240 229 225 222 221 216 218 193 198 209
228 240 233 207 203 199 190 194 209 209 206 206 215 217 224 229 276 268 287 293 352 356 362 374 516 280 528 524 504 308 296 279 268 268 264 245 236 229 229 222 218 193 197
193 200 199 189 184 196 209 205 209 203 215 216 244 275 278 268 259 283 349 372 361 535 492 520 519 516 523 513 514 519 524 518 401 308 270 273 260 253 237 234 222 201 194
194 185 179 193 192 198 203 201 204 216 246 272 270 272 258 315 351 369 361 424 445 429 421 419 420 428 470 480 482 491 510 519 510 518 473 324 305 282 255 253 243 230 217
193 200 194 195 196 204 198 207 259 263 264 266 277 294 293 350 479 456 440 424 412 421 401 401 393 397 403 410 412 425 446 464 481 483 490 537 460 305 289 278 264 251 241
192 183 196 199 218 230 248 261 255 249 250 284 316 328 471 464 445 419 403 393 392 404 395 379 374 376 381 385 388 392 400 405 421 439 455 470 527 548 306 292 280 278 262
184 202 224 231 244 258 257 260 231 249 293 299 336 405 416 430 405 390 378 392 392 393 384 365 366 368 368 371 376 198 206 391 215 399 419 430 461 509 529 314 293 271 279
217 228 237 252 253 245 273 232 291 300 278 380 349 449 421 398 378 371 390 388 377 369 379 348 356 355 360 362 366 370 375 75 390 388 392 405 417 465 492 508 322 298 289
226 244 259 251 250 212 265 278 267 288 353 439 448 418 394 372 368 393 384 366 368 352 352 353 348 351 424 415 405 407 416 429 388 386 388 390 394 409 465 477 487 497 302
233 251 257 236 204 257 283 285 332 354 413 448 420 394 373 364 382 375 363 357 346 349 347 351 379 411 378 370 373 376 384 401 75 436 415 383 392 391 408 454 463 471 371
246 257 264 232 235 260 255 272 364 371 420 423 395 379 367 376 380 363 344 344 336 343 349 367 393 362 361 361 354 357 415 483 315 337 442 452 381 385 386 420 440 451 464
252 259 254 237 261 291 278 335 345 429 431 399 376 361 375 379 353 340 330 335 329 355 364 413 355 350 353 368 355 348 508 495 486 471 454 445 445 377 383 387 430 435 446
255 260 227 255 287 272 325 334 411 435 410 383 362 347 382 344 331 326 323 346 360 363 402 359 344 346 346 366 357 408 468 487 481 467 461 452 442 412 373 379 403 422 428
260 263 253 264 283 266 339 368 447 426 393 368 376 385 336 327 321 326 337 337 345 357 405 344 341 347 366 367 335 465 467 455 466 459 458 449 444 443 373 371 377 415 417
267 270 260 288 266 320 337 380 438 407 380 353 381 331 325 319 343 343 344 347 338 361 369 338 342 358 365 365 349 407 487 476 456 449 455 447 446 446 458 365 370 401 415
250 264 279 276 315 342 384 447 430 393 363 377 324 321 312 332 336 342 349 350 347 386 348 334 348 346 361 363 363 395 456 481 455 448 454 465 454 457 466 363 363 382 408
261 270 280 268 329 353 375 443 415 379 361 338 325 313 320 326 333 340 359 350 347 391 337 338 338 339 352 361 363 332 454 444 438 444 454 464 472 476 446 361 362 373 391
Wind_Speed
96 93 81 76 65 59 65 60 61 59 57 62 60 63 63 58 57 57 54 52 50 51 52 54 52 51 49 49 48 48 48 46 42 49 51 38 77 92 84 91 93 96 101
96 67 72 70 70 67 68 60 59 60 62 61 64 68 65 61 61 61 60 57 59 55 55 55 57 56 54 54 53 52 51 52 51 58 51 55 44 90 100 86 97 89 99
73 78 78 74 78 77 70 68 63 65 62 67 66 67 67 64 63 65 67 67 63 62 59 60 63 63 62 61 60 58 57 59 59 56 60 51 62 68 97 87 103 98 103
79 81 80 83 81 80 83 80 73 72 71 72 73 73 73 74 74 73 70 71 70 70 69 69 67 66 67 67 68 66 65 64 65 63 63 71 63 63 85 105 99 101 98
82 82 83 82 82 76 78 78 77 78 79 79 81 80 81 81 80 75 67 72 77 77 77 75 79 77 74 75 74 75 75 73 71 71 70 72 68 61 74 72 111 105 108
78 80 78 80 80 80 81 83 83 84 85 85 85 83 84 83 85 86 83 88 86 85 87 86 84 86 85 85 84 81 81 81 80 77 76 79 76 75 67 77 89 119 113
73 78 81 81 83 83 84 85 86 86 87 87 88 88 90 90 90 92 94 92 95 96 96 95 65 91 92 92 95 88 94 88 86 85 84 83 80 80 59 74 84 110 111
74 76 77 82 82 83 83 85 87 88 90 89 91 94 96 97 98 96 99 104 105 107 110 109 110 110 110 111 109 105 103 92 98 95 93 92 91 87 89 86 76 89 96
75 76 78 81 82 84 85 86 88 90 94 95 95 99 102 107 109 109 111 114 117 119 119 121 121 120 118 121 122 121 119 116 114 111 103 102 100 98 93 95 93 90 98
77 79 81 82 84 86 88 89 93 97 100 104 108 108 112 116 115 115 116 117 116 117 121 123 123 129 128 130 129 127 122 126 125 127 121 113 108 107 102 99 101 98 98
79 77 77 80 83 87 92 97 100 102 105 108 115 117 119 121 119 117 116 118 122 122 121 121 69 121 65 69 77 133 133 135 128 129 132 129 121 114 113 109 104 105 105
75 75 77 84 88 92 94 99 105 104 113 117 119 118 118 117 116 120 129 127 121 43 57 49 51 50 46 52 58 64 66 73 114 139 130 137 131 131 120 117 113 107 108
74 80 84 89 92 97 102 101 108 116 110 115 116 116 113 128 130 128 123 85 67 61 59 59 59 58 50 47 50 50 48 51 58 59 83 141 143 139 129 132 126 120 116
82 86 91 97 100 105 102 112 109 111 113 114 117 122 118 126 65 66 66 68 63 53 53 51 56 57 56 56 53 53 50 51 53 57 57 54 89 144 143 139 134 129 127
86 85 97 101 104 102 107 111 110 108 111 123 128 122 73 63 62 66 66 66 64 52 44 48 53 57 57 57 57 57 54 55 56 55 55 56 53 59 143 146 139 138 135
90 97 97 98 104 108 109 112 99 110 124 123 122 95 79 62 63 64 64 57 54 51 43 50 51 52 55 57 57 33 30 57 36 60 59 57 54 55 61 144 147 131 140
94 96 99 105 105 105 113 98 124 124 115 108 113 61 61 62 63 63 54 51 51 53 48 48 50 50 50 53 56 57 58 25 58 61 64 61 60 53 58 62 147 148 143
98 102 105 101 104 86 111 116 113 118 115 74 60 60 61 61 60 52 47 51 51 52 51 49 54 52 47 46 46 46 49 51 62 61 61 63 63 61 54 59 62 71 149
102 109 107 99 80 109 122 119 120 114 85 59 59 59 60 58 51 48 48 50 51 51 51 51 49 43 42 45 45 45 47 50 23 55 60 64 66 62 60 56 60 63 125
109 112 110 100 104 111 109 113 109 98 72 58 58 57 56 51 45 45 50 50 51 51 51 49 39 40 43 44 43 44 46 46 39 47 55 55 65 64 64 57 58 61 62
111 110 107 105 111 121 114 112 103 71 58 58 57 56 50 44 45 47 50 49 50 50 47 41 38 41 42 44 43 45 40 38 40 44 50 54 55 65 64 61 56 59 60
110 109 102 107 120 111 112 106 82 59 57 56 55 54 43 47 47 50 52 50 48 47 42 35 39 40 42 44 40 38 33 32 31 38 44 49 55 61 64 61 55 56 58
112 113 110 114 116 111 105 93 58 55 55 53 46 40 48 48 51 51 50 50 48 45 37 36 38 42 43 41 35 32 29 29 29 33 40 45 49 51 65 61 58 55 55
115 115 112 119 112 109 101 86 54 54 52 50 39 47 47 51 47 48 48 46 46 42 33 35 37 37 38 39 33 29 22 22 25 28 34 40 46 47 49 61 58 53 51
106 112 117 115 109 101 88 55 49 50 48 39 47 46 51 46 46 45 44 43 42 37 30 32 32 34 35 35 32 25 18 11 16 22 26 33 38 40 43 59 55 50 46
113 117 116 112 105 97 84 48 46 46 42 41 43 47 47 45 46 44 41 40 38 32 28 28 28 30 33 33 29 22 11 6 7 11 16 22 29 33 44 56 51 46 45
Wind_Direction
291 292 294 292 296 297 289 292 293 292 290 297 284 283 284 286 284 285 285 280 277 269 275 279 273 265 264 265 260 257 250 237 241 234 233 232 219 221 225 219 223 225 223
292 291 298 300 298 295 300 296 293 294 295 285 283 284 285 285 285 285 282 279 281 275 272 271 271 266 266 263 253 255 256 247 237 222 232 233 231 219 218 226 223 230 229
295 298 305 300 303 303 303 302 298 299 291 290 292 290 288 284 282 284 287 285 279 275 267 272 266 266 266 266 259 256 252 248 244 239 227 240 232 222 220 228 224 227 229
299 300 303 304 305 305 302 303 302 300 296 294 291 289 290 291 290 288 285 283 282 281 278 275 267 265 265 264 262 258 252 248 243 242 237 221 231 226 221 220 227 229 231
298 297 296 299 300 300 300 300 299 298 296 294 294 294 294 292 290 285 283 281 280 278 276 275 274 271 265 262 259 257 255 250 248 242 236 233 232 234 227 227 222 226 228
291 292 297 298 299 298 298 297 297 296 295 295 293 292 289 287 288 287 284 280 278 276 276 274 271 269 267 266 261 256 256 255 251 247 244 235 236 232 233 226 224 223 225
294 296 298 297 296 295 296 296 295 294 294 294 293 290 288 287 287 289 287 287 285 283 281 278 268 270 267 264 262 262 259 255 251 249 248 246 240 234 252 230 228 222 227
295 294 294 295 296 296 295 296 296 296 294 293 293 292 290 289 288 285 283 282 281 278 274 272 270 269 268 267 266 263 261 257 253 248 245 245 244 237 231 231 232 225 226
293 294 295 296 297 297 297 297 296 295 294 294 294 292 290 288 285 286 287 284 282 280 277 274 271 267 262 258 257 259 259 259 256 253 247 247 244 243 232 231 228 227 225
295 296 296 296 297 298 297 296 295 295 295 295 291 293 292 290 291 291 287 284 285 282 278 271 271 264 262 257 256 254 253 253 253 252 251 248 246 243 240 236 229 227 226
291 291 292 296 296 295 296 295 292 292 294 297 295 298 296 293 291 290 291 289 292 290 288 288 279 271 270 269 267 253 252 252 254 249 244 245 245 242 241 237 233 229 226
296 296 295 294 295 294 294 296 297 302 298 298 294 296 295 294 293 294 297 297 296 295 289 288 284 279 274 269 267 266 264 262 249 245 248 246 243 240 241 238 234 233 231
291 289 292 293 299 302 301 304 303 298 299 302 299 299 297 301 301 299 299 298 295 293 290 288 284 279 278 274 272 269 268 261 259 259 248 240 236 238 239 238 236 233 229
296 298 300 303 304 301 306 302 302 303 302 302 304 304 303 302 303 301 299 298 296 294 292 287 284 282 279 276 271 266 265 264 259 257 255 254 242 235 235 233 236 235 233
301 306 303 302 295 299 305 307 305 304 304 308 308 307 306 303 301 301 299 298 297 296 292 287 283 282 279 277 274 270 263 258 259 257 253 251 252 246 232 232 234 231 232
306 301 301 306 309 311 309 308 307 309 310 310 309 307 305 303 303 302 301 301 299 297 294 288 282 281 279 278 275 261 258 258 249 253 251 247 249 246 241 229 230 231 229
303 306 310 313 311 309 312 310 314 312 312 309 308 305 305 304 304 303 303 300 298 298 299 290 288 283 280 276 273 269 265 240 253 248 248 244 243 246 242 238 227 228 230
311 317 316 313 313 307 315 315 315 314 313 312 308 306 306 305 305 303 300 299 301 300 299 297 292 289 290 286 279 273 268 264 256 249 243 243 240 239 242 238 235 233 226
315 316 315 315 309 317 317 315 315 314 316 310 308 308 307 307 305 303 303 302 302 302 301 298 298 296 287 284 282 278 272 265 227 255 246 239 239 235 236 236 234 232 223
317 317 316 315 317 318 317 318 315 316 315 310 309 308 308 306 305 304 303 304 304 303 302 303 300 293 291 288 284 280 278 271 255 252 249 244 237 234 232 234 233 231 228
317 317 317 316 318 317 318 317 316 316 312 311 310 309 307 306 307 306 304 306 305 306 307 305 298 297 298 297 287 284 283 270 259 249 243 241 238 233 232 230 230 229 227
318 318 319 318 319 320 318 318 321 314 312 311 311 310 308 309 308 307 308 310 310 310 310 302 300 299 297 301 292 291 285 272 257 246 238 234 233 229 230 229 228 227 225
319 318 317 320 320 320 319 321 315 313 312 312 311 309 311 310 311 311 311 311 311 313 310 302 303 304 306 308 289 299 286 270 257 244 238 233 232 229 225 226 225 225 222
321 320 320 318 321 320 321 323 314 312 313 313 310 312 311 313 315 314 312 312 311 314 309 305 310 314 315 317 305 301 288 270 254 243 238 231 231 226 220 223 223 223 220
318 320 320 321 322 321 324 316 312 312 312 310 312 312 314 318 318 317 315 313 313 314 307 310 314 316 325 325 322 305 300 277 251 240 236 231 229 222 213 219 221 220 216
319 320 320 320 320 323 323 314 312 312 310 310 311 313 318 322 324 324 318 314 314 312 307 313 315 322 333 332 330 306 307 269 245 234 225 218 217 207 199 215 218 215 213